Location: Civry
(47.2902°N, 4.6156°E)
Time: 00:40:19
(UTC+00:00)

Cosmos 2369 - Pass Details

Date: 09 April 2020
Orbit: 840 x 855 km, 71.0° (Epoch: 30 May)

Event Time Altitude Azimuth Distance (km) Brightness Sun altitude
Rises 21:06:23 0° 333° (NNW) 3,405 8.1 -24.8°
Reaches altitude 10° 21:08:51 10° 335° (NNW) 2,467 7.1 -25.0°
Maximum altitude 21:14:31 78° 62° (ENE) 866 3.6 -25.7°
Enters shadow 21:15:01 71° 111° (ESE) 888 3.5 -25.7°
